Regional Weather Roundup
Issued by NWS

Home | Current Version | Previous Version | Graphics & Text | Print | Product List | Glossary On
Versions: 1 2 3 4 5 6 7 8 9 10 11 12 13 14 15 16 17 18 19 20 21 22 23 24 25 26 27 28 29 30 31 32 33 34 35 36 37 38 39 40 41 42 43 44 45 46 47 48 49 50
000
ASUS43 KLSX 251807
RWRMO

WEATHER SUMMARY FOR MISSOURI
NATIONAL WEATHER SERVICE SPRINGFIELD MO
100 PM CDT FRI JUL 25 2014

NOTE: "FAIR" INDICATES FEW OR NO CLOUDS BELOW 12,000 FEET WITH NO
       SIGNIFICANT WEATHER AND/OR OBSTRUCTIONS TO VISIBILITY.
       CURRENT SKY AND/OR WEATHER CONDITIONS ARE NOT AVAILABLE FOR
       CHILLICOTHE AND FARMINGTON.

MOZ001>031-035>038-043-044-053-054-251900-
...NORTHERN AND WESTERN MISSOURI...

CITY           SKY/WX    TMP DP  RH WIND       PRES   REMARKS
KANSAS CTY INT MOSUNNY   90  73  57 SW10      29.85R HX  98
6HR MIN TEMP:  73; 6HR MAX TEMP:  90;

KANSAS C DTWN  SUNNY     94  71  47 S18       29.83S HX 101
6HR MIN TEMP:  74; 6HR MAX TEMP:  94; 6HR PCP: TRACE;

LEE`S SUMMIT   SUNNY     88  72  58 S17G25    29.86F HX  94
6HR MIN TEMP:  70; 6HR MAX TEMP:  89;

ST JOSEPH      MOSUNNY   89  74  60 S15       29.81F HX  98
6HR MIN TEMP:  72; 6HR MAX TEMP:  90;

CHILLICOTHE      N/A     81  69  67 E10       29.89F
6HR MIN TEMP:  68; 6HR MAX TEMP:  82;

KIRKSVILLE     CLOUDY    65  62  90 E16       29.97F
6HR MIN TEMP:  62; 6HR MAX TEMP:  67; 6HR PCP:  0.11;


$$
MOZ066>068-077>081-088>096-101>105-251900-
...SOUTHWEST MISSOURI...

CITY           SKY/WX    TMP DP  RH WIND       PRES   REMARKS
SPRINGFIELD    SUNNY     85  70  60 SW15      29.98S
6HR MIN TEMP:  66; 6HR MAX TEMP:  87;

JOPLIN         SUNNY     89  70  53 SW15G23   29.95F HX  94
6HR MIN TEMP:  72; 6HR MAX TEMP:  89;


$$
MOZ032>034-039>042-045>050-055>058-069>072-251900-
...CENTRAL MISSOURI...

CITY           SKY/WX    TMP DP  RH WIND       PRES   REMARKS
COLUMBIA       CLOUDY    81  67  62 SE14      29.96F
6HR MIN TEMP:  64; 6HR MAX TEMP:  81;

JEFFERSON CITY CLOUDY    82  66  58 SE13      29.94F
6HR MIN TEMP:  66; 6HR MAX TEMP:  82;

ROLLA          PTSUNNY   82  63  52 SE13      29.99F
6HR MIN TEMP:  65; 6HR MAX TEMP:  83;

SEDALIA        PTSUNNY   88  72  58 S15       29.92F HX  94
6HR MIN TEMP:  69; 6HR MAX TEMP:  89;

WHITEMAN AFB   PTSUNNY   88  62  42 S17       29.89S
OSAGE BEACH    MOSUNNY   88  70  55 S12       29.95F HX  92

$$
MOZ051-052-059>065-251900-
...EAST CENTRAL MISSOURI...

CITY           SKY/WX    TMP DP  RH WIND       PRES   REMARKS
ST LOUIS INTL  CLOUDY    74  58  57 SE5       30.04F
6HR MIN TEMP:  69; 6HR MAX TEMP:  76; 6HR PCP: TRACE;

SPIRIT OF STL  CLOUDY    71  61  70 E5        30.01F
6HR MIN TEMP:  63; 6HR MAX TEMP:  73;

ST CHARLES     CLOUDY    68  65  90 E9        30.03F
6HR MIN TEMP:  62; 6HR MAX TEMP:  70;


$$
MOZ072>076-082>087-097>100-106>115-251900-
...SOUTH CENTRAL AND SOUTHEAST MISSOURI...

CITY           SKY/WX    TMP DP  RH WIND       PRES   REMARKS
CAPE GIRARDEAU PTSUNNY   78  59  51 CALM      30.06R
6HR MIN TEMP:  60; 6HR MAX TEMP:  80;

FARMINGTON     CLOUDY    77  61  57 S6        30.08F
6HR MIN TEMP:  57; 6HR MAX TEMP:  77;

POPLAR BLUFF   SUNNY     80  57  45 CALM      30.06R
6HR MIN TEMP:  61; 6HR MAX TEMP:  81;

WEST PLAINS    PTSUNNY   80  63  55 SE10      30.05F
6HR MIN TEMP:  64; 6HR MAX TEMP:  80;


$$



USA.gov is the U.S. government's official web portal to all federal, state and local government web resources and services.